Location: Bukit Nyuki
(2.5885°N, 113.7476°E)
Time: 12:39:28
(UTC+00:00)

H-2A R/B - Visible Passes

Search period start: 20 September 2021 00:00
Search period end: 30 September 2021 00:00
Orbit: 501 x 538 km, 97.3° (Epoch: 12 March)

Date Brightness Start Highest point End Pass type
(mag) Time Alt. Az. Time Alt. Az. Time Alt. Az.
20 Sep 3.7 21:44:31 10° NNW 21:47:45 26° WNW 21:51:00 10° SW visible
21 Sep 3.1 21:29:57 10° N 21:33:38 43° WNW 21:37:17 10° SSW visible
22 Sep 2.6 21:15:39 10° N 21:19:29 76° W 21:23:19 10° SSW visible
23 Sep 3.2 21:01:33 10° NNE 21:05:21 61° E 21:09:08 10° S visible
24 Sep 4.4 20:47:40 10° NE 20:51:12 35° E 20:54:42 10° SSE visible
25 Sep 5.3 20:34:04 10° NE 20:37:02 21° E 20:39:59 10° SSE visible
26 Sep 6.0 20:21:04 10° ENE 20:22:53 13° E 20:24:43 10° SE visible
27 Sep 3.5 21:39:13 10° NNW 21:42:35 30° WNW 21:45:57 10° SW visible
28 Sep 2.8 21:24:43 10° N 21:28:27 51° W 21:32:08 10° SSW visible
29 Sep 2.7 21:10:27 10° N 21:14:17 89° SE 21:18:05 10° S visible
